This demonstration page uses our WeatherBlox Daily Observations layout. Learn more.

Left ArrowRight Arrow

38.20091, -84.87328

Hourly Observations for August 22, 2021

Temp ( °F °C ) Dew Point ( °F °C ) Humidity (%) Winds ( mph kmh ) Pressure ( in mb ) Visibility ( mi km ) Precip ( " mm )
12:53 am 00:53 Clear 72 22.2 70 21.1 94 94 Calm 29.89 1012 10 16 0.00 0.00
1:53 am 01:53 Clear 72 22.2 70 21.1 94 94 Calm 29.89 1012 8 13 0.00 0.00
2:53 am 02:53 Clear with Mist and Fog 70 21.1 68 20 93 93 Calm 29.89 1012 5 8 0.00 0.00
3:53 am 03:53 Clear 70 21.1 68 20 93 93 Calm 29.90 1012 8 13 0.00 0.00
4:44 am 04:44 Clear with Mist and Fog 69 20.6 68 20 96 96 Calm 29.91 1013 1 2 0.00 0.00
4:51 am 04:51 Clear with Mist and Fog 70 21 68 20 94 94 Calm 29.91 1013 1 2 0.00 0.00
4:53 am 04:53 Clear with Mist and Fog 70 21.1 68 20 93 93 Calm 29.91 1013 1 2 0.00 0.00
4:55 am 04:55 Clear with Mist and Fog 70 21.1 68 20 93 93 Calm 29.91 1013 3 5 0.00 0.00
5:53 am 05:53 Clear 69 20.6 67 19.4 93 93 Calm 29.91 1013 8 13 0.00 0.00
6:53 am 06:53 Clear with Mist and Fog 67 19.4 66 18.9 97 97 Calm 29.91 1013 6 10 0.00 0.00
7:01 am 07:01 Mostly Clear with Mist and Fog 68 20 67 19.4 96 96 Calm 29.92 1013 4 6 0.00 0.00
7:53 am 07:53 Sunny 70 21.1 68 20 93 93 Calm 29.93 1013 8 13 0.00 0.00
8:53 am 08:53 Sunny 76 24.4 71 21.7 85 85 Calm 29.95 1014 10 16 0.00 0.00
9:53 am 09:53 Sunny 81 27.2 70 21.1 69 69 ENE 3 6 29.96 1015 10 16 0.00 0.00
10:53 am 10:53 Sunny 86 30 70 21.1 59 59 VRB 3 6 29.97 1015 10 16 0.00 0.00
11:53 am 11:53 Sunny 87 30.6 69 20.6 55 55 NE 6 9 29.96 1015 10 16 0.00 0.00
12:53 pm 12:53 Mostly Cloudy 89 31.7 70 21.1 53 53 ENE 7 11 29.96 1014 10 16 0.00 0.00
1:53 pm 13:53 Mostly Cloudy 90 32.2 68 20 48 48 Calm 29.94 1014 10 16 0.00 0.00
2:53 pm 14:53 Partly Cloudy 87 30.6 68 20 53 53 E 3 6 29.94 1014 10 16 0.00 0.00
3:53 pm 15:53 Mostly Cloudy 92 33.3 67 19.4 44 44 VRB 5 7 29.93 1014 10 16 0.00 0.00
4:53 pm 16:53 Sunny 91 32.8 66 18.9 44 44 N 5 7 29.93 1013 10 16 0.00 0.00
5:53 pm 17:53 Sunny 90 32.2 68 20 48 48 Calm 29.93 1013 10 16 0.00 0.00
6:53 pm 18:53 Sunny 88 31.1 68 20 52 52 VRB 3 6 29.92 1013 10 16 0.00 0.00
7:53 pm 19:53 Sunny 84 28.9 72 22.2 67 67 Calm 29.93 1014 9 14 0.00 0.00
8:53 pm 20:53 Clear 78 25.6 73 22.8 85 85 Calm 29.94 1014 8 13 0.00 0.00
9:53 pm 21:53 Clear 76 24.4 71 21.7 85 85 Calm 29.94 1014 7 11 0.00 0.00
10:53 pm 22:53 Clear with Mist and Fog 75 23.9 71 21.7 88 88 Calm 29.94 1014 6 10 0.00 0.00
11:53 pm 23:53 Clear with Mist and Fog 74 23.3 72 22.2 94 94 Calm 29.94 1014 4 6 0.00 0.00

Powered by AerisWeather